Location: Bridgewater
(44.3670°N, 64.5170°W)
Time: 08:20:17
(UTC-04:00)

Amateur Radio Satellites - All Passes

Search period start: 29 January 2015 07:50
Search period end: 30 January 2015 07:50
Location: Bridgewater, 44.3670°N, 64.5170°W

Satellite Date Start Highest point End Downlink Frequencies (MHz)
Time Altitude Azimuth
CUTE-I 29 Jan 07:54:04 07:58:41 29° 295° (WNW) 08:03:13 437.470
YUBILEINY 29 Jan 08:03:39 08:11:54 46° 271° (W) 08:20:03 435.215
COMPASS 1 29 Jan 08:15:49 08:17:11 12° 87° (E) 08:18:48 437.405
GOMX 1 29 Jan 08:20:09 08:24:28 24° 90° (E) 08:28:45 467.674
BRITE-PL 29 Jan 08:23:18 08:28:32 37° 94° (E) 08:33:37 437.365/2234.400
CANX-2 29 Jan 08:27:56 08:31:25 25° 93° (E) 08:34:57 2200.000
DOVE 4 29 Jan 08:33:22 08:37:22 23° 90° (E) 08:41:21 437.250
AAUSAT CUBESAT 2 29 Jan 08:40:56 08:43:57 20° 92° (E) 08:47:02 437.432
UNISAT 6 29 Jan 08:48:15 08:51:08 17° 63° (ENE) 08:54:10 437.425
CUTE 1.7 + AOD 2 29 Jan 08:51:46 08:55:47 41° 97° (E) 08:59:47 437.475
Oscar 11 29 Jan 08:53:58 08:56:07 14° 88° (E) 08:58:27 145.826/435.025
VERMONT LUNAR 29 Jan 09:02:19 09:05:01 21° 158° (SSE) 09:07:47 437.305
POPSAT HIP 1 29 Jan 09:07:06 09:09:15 14° 62° (ENE) 09:11:34 437.405
DUCHIFAT 1 29 Jan 09:09:41 09:11:58 15° 63° (ENE) 09:14:24 145.980
HO-68 29 Jan 09:20:55 09:28:06 76° 104° (ESE) 09:35:16 435.675
SEEDS 29 Jan 09:22:30 09:26:43 77° 101° (ESE) 09:30:54 437.485
ANTELSAT 29 Jan 09:22:40 09:26:53 34° 69° (ENE) 09:31:09 437.575/2403.000
SO-50 29 Jan 09:23:07 09:24:49 12° 109° (ESE) 09:26:47 436.795
UKube-1 29 Jan 09:28:39 09:31:38 18° 91° (E) 09:34:43 .
TIGRISAT 29 Jan 09:30:19 09:34:41 39° 70° (ENE) 09:39:04 435.000
BEESAT 2 29 Jan 09:30:42 09:32:46 13° 33° (NNE) 09:34:56 435.950
CUBEBUG 2 29 Jan 09:34:32 09:38:27 27° 93° (E) 09:42:17 437.445
NANOSAT C BR1 29 Jan 09:42:34 09:46:18 30° 69° (ENE) 09:50:06 145.865
ZACube-1 29 Jan 09:42:50 09:46:22 23° 92° (E) 09:49:53 437.345
BEESAT 3 29 Jan 09:44:29 09:47:19 18° 38° (NE) 09:50:12 437.485
HUMSAT D 29 Jan 09:47:39 09:49:47 14° 88° (E) 09:52:06 437.325/437.525
DX 1 29 Jan 09:48:41 09:52:34 30° 96° (E) 09:56:29 434.975-435.025
COMPASS 1 29 Jan 09:49:18 09:53:28 64° 285° (WNW) 09:57:34 437.405
RS-15 29 Jan 09:50:57 09:59:45 26° 359° (N) 10:08:47 29.354- 29.394
FUNcube-1 29 Jan 09:54:35 09:58:29 30° 94° (E) 10:02:20 145.935
QB50P2 29 Jan 09:56:27 10:00:30 43° 71° (ENE) 10:04:37 145.880/145.840
GOMX 1 29 Jan 09:57:37 10:02:53 49° 289° (WNW) 10:07:54 467.674
CINEMA 3 29 Jan 09:57:57 10:02:53 81° 102° (ESE) 10:07:34 145.822/145.860
PHONESAT 2.4 29 Jan 10:00:04 10:03:11 28° 162° (SSE) 10:06:20 2401.200-2431.200
BRITE-PL 29 Jan 10:01:50 10:06:59 35° 293° (WNW) 10:11:56 437.365/2234.400
CANX-2 29 Jan 10:03:40 10:07:25 30° 291° (WNW) 10:11:06 2200.000
QB50P1 29 Jan 10:05:42 10:09:51 53° 73° (ENE) 10:14:05 145.935-145.965
DOVE 4 29 Jan 10:10:24 10:15:27 48° 289° (WNW) 10:20:16 437.250
DELFI C3 29 Jan 10:11:24 10:15:28 78° 102° (ESE) 10:19:31 145.870
AISAT 29 Jan 10:13:00 10:16:30 22° 93° (E) 10:20:05 437.250
UWE-3 29 Jan 10:14:26 10:18:56 60° 100° (E) 10:23:16 435.000/436.395/437.385
GONETS M04 29 Jan 10:15:44 10:18:15 12° 48° (NE) 10:21:22
AAUSAT CUBESAT 2 29 Jan 10:15:56 10:19:48 37° 289° (WNW) 10:23:37 437.432
ESTCUBE 1 29 Jan 10:17:31 10:18:31 11° 86° (E) 10:19:47 437.505/2401.250
BUGSAT 1 29 Jan 10:18:03 10:22:04 55° 72° (ENE) 10:26:10 437.445
POLYITAN 1 29 Jan 10:20:16 10:24:34 78° 75° (ENE) 10:28:56 437.675
UNISAT 6 29 Jan 10:22:49 10:27:30 63° 259° (W) 10:32:12 437.425
CUTE 1.7 + AOD 2 29 Jan 10:28:23 10:31:29 20° 294° (WNW) 10:34:28 437.475
Oscar 11 29 Jan 10:28:30 10:32:45 58° 287° (WNW) 10:36:58 145.826/435.025
VERMONT LUNAR 29 Jan 10:39:24 10:42:43 42° 175° (S) 10:46:04 437.305
AIST 1 29 Jan 10:39:47 10:42:46 19° 88° (E) 10:45:52
POPSAT HIP 1 29 Jan 10:40:26 10:44:41 65° 259° (WSW) 10:48:59 437.405
VELOX 1 29 Jan 10:40:47 10:45:04 41° 98° (E) 10:49:19 145.980
DUCHIFAT 1 29 Jan 10:43:10 10:47:23 61° 259° (W) 10:51:40 145.980
CUBEBUG 1 29 Jan 10:49:52 10:53:19 22° 93° (E) 10:56:52 437.445
50 SAT 29 Jan 10:58:38 11:02:40 62° 100° (E) 11:06:39 437.505
ANTELSAT 29 Jan 10:59:39 11:03:44 28° 266° (W) 11:07:45 437.575/2403.000
SO-50 29 Jan 11:00:08 11:04:43 85° 305° (NW) 11:09:30 436.795
SEEDS 29 Jan 11:00:34 11:02:01 11° 298° (WNW) 11:03:16 437.485
AIST 2 29 Jan 11:03:09 11:07:04 33° 46° (NE) 11:10:56 435.215
UKube-1 29 Jan 11:03:53 11:08:04 45° 289° (WNW) 11:12:14 .
BEESAT 2 29 Jan 11:07:34 11:11:46 75° 53° (NE) 11:15:54 435.950
TIGRISAT 29 Jan 11:07:43 11:11:35 24° 267° (W) 11:15:21 435.000
HO-68 29 Jan 11:09:38 11:15:14 25° 303° (WNW) 11:20:38 435.675
CUBEBUG 2 29 Jan 11:11:05 11:15:12 32° 291° (WNW) 11:19:08 437.445
NANOSAT C BR1 29 Jan 11:18:35 11:22:13 26° 266° (W) 11:25:49 145.865
ZACube-1 29 Jan 11:18:48 11:22:53 35° 291° (WNW) 11:26:50 437.345
BEESAT 3 29 Jan 11:21:47 11:25:57 71° 238° (WSW) 11:30:01 437.485
HUMSAT D 29 Jan 11:21:51 11:26:03 55° 287° (WNW) 11:30:08 437.325/437.525
DX 1 29 Jan 11:25:00 11:28:47 28° 293° (WNW) 11:32:29 434.975-435.025
PCSat 29 Jan 11:30:57 11:33:47 14° 32° (NNE) 11:36:45 145.827
FUNcube-1 29 Jan 11:30:59 11:34:48 28° 293° (WNW) 11:38:27 145.935
QB50P2 29 Jan 11:33:37 11:36:41 18° 269° (W) 11:39:40 145.880/145.840
CINEMA 3 29 Jan 11:36:54 11:39:26 14° 300° (WNW) 11:41:43 145.822/145.860
PHONESAT 2.4 29 Jan 11:37:54 11:41:24 45° 179° (S) 11:44:54 2401.200-2431.200
Oscar 19 29 Jan 11:39:41 11:43:20 20° 62° (ENE) 11:47:06 437.125/150
QB50P1 29 Jan 11:43:36 11:46:09 15° 271° (W) 11:48:34 145.935-145.965
AISAT 29 Jan 11:49:05 11:53:18 39° 290° (WNW) 11:57:28 437.250
DELFI C3 29 Jan 11:49:12 11:50:11 11° 298° (WNW) 11:50:57 145.870
ESTCUBE 1 29 Jan 11:51:32 11:56:05 80° 285° (WNW) 12:00:36 437.505/2401.250
UWE-3 29 Jan 11:52:14 11:55:01 16° 297° (WNW) 11:57:38 435.000/436.395/437.385
BUGSAT 1 29 Jan 11:55:51 11:58:00 13° 271° (W) 11:59:59 437.445
ITAMSAT 1 29 Jan 11:58:22 11:59:42 11° 56° (NE) 12:01:19 435.822/435.867
POLYITAN 1 29 Jan 12:00:27 12:01:11 10° 274° (W) 12:01:39 437.675
RS-15 29 Jan 12:05:57 12:16:13 40° 32° (NNE) 12:27:01 29.354- 29.394
GONETS M04 29 Jan 12:09:15 12:17:45 55° 74° (ENE) 12:26:15
SPROUT 29 Jan 12:10:57 12:15:04 39° 97° (E) 12:19:10 437.525
AIST 1 29 Jan 12:16:15 12:20:13 37° 285° (WNW) 12:24:11
VERMONT LUNAR 29 Jan 12:17:17 12:20:32 36° 192° (SSW) 12:23:49 437.305
VELOX 1 29 Jan 12:17:56 12:21:25 22° 295° (WNW) 12:24:49 145.980
CUBEBUG 1 29 Jan 12:25:43 12:29:51 38° 290° (WNW) 12:33:58 437.445
50 SAT 29 Jan 12:35:23 12:37:21 13° 297° (WNW) 12:39:09 437.505
AIST 2 29 Jan 12:41:51 12:45:39 30° 244° (WSW) 12:49:21 435.215
SO-50 29 Jan 12:42:53 12:46:03 17° 327° (NNW) 12:49:12 436.795
AO-7 29 Jan 12:44:59 12:47:49 12° 40° (NE) 12:51:04 29.400- 29.500
BEESAT 2 29 Jan 12:47:48 12:49:28 12° 250° (WSW) 12:50:57 435.950
TISAT 1 29 Jan 12:47:56 12:52:16 85° 283° (WNW) 12:56:33 437.305
Gurwin Techsat 1B 29 Jan 12:52:24 12:56:26 23° 63° (ENE) 13:00:37 435.225
PCSat 29 Jan 13:13:02 13:18:26 60° 55° (NE) 13:23:47 145.827
SWISSCUBE 29 Jan 13:13:23 13:17:34 30° 95° (E) 13:21:48 437.505
PHONESAT 2.4 29 Jan 13:16:22 13:19:39 32° 195° (SSW) 13:22:56 2401.200-2431.200
Oscar 19 29 Jan 13:17:08 13:22:17 60° 259° (W) 13:27:27 437.125/150
BEESAT 29 Jan 13:28:59 13:33:28 39° 97° (E) 13:37:58 436.000
DANDE 29 Jan 13:32:10 13:34:20 12° 47° (NE) 13:36:41 436.750
ITUPSAT 1 29 Jan 13:32:52 13:37:25 42° 98° (E) 13:41:58 437.325
ITAMSAT 1 29 Jan 13:33:15 13:38:24 73° 73° (ENE) 13:43:36 435.822/435.867
SPROUT 29 Jan 13:47:36 13:50:58 21° 294° (WNW) 13:54:12 437.525
KKS-1 29 Jan 13:50:16 13:52:19 13° 88° (E) 13:54:36 437.445
VERMONT LUNAR 29 Jan 13:56:03 13:58:09 15° 207° (SSW) 14:00:11 437.305
CUSAT 1 29 Jan 13:59:36 14:04:03 20° 56° (NE) 14:07:56 437.405
GONETS M04 29 Jan 14:06:39 14:14:17 35° 275° (W) 14:21:45
RS-15 29 Jan 14:18:34 14:29:55 81° 238° (WSW) 14:41:47 29.354- 29.394
AO-7 29 Jan 14:30:54 14:38:42 47° 61° (ENE) 14:46:35 29.400- 29.500
Gurwin Techsat 1B 29 Jan 14:30:57 14:36:07 52° 260° (W) 14:41:20 435.225
HORYU 2 29 Jan 14:38:06 14:42:34 66° 74° (ENE) 14:47:03 437.375
SWISSCUBE 29 Jan 14:51:11 14:55:27 32° 293° (WNW) 14:59:40 437.505
PHONESAT 2.4 29 Jan 14:56:23 14:57:36 11° 210° (SSW) 14:58:44 2401.200-2431.200
PCSat 29 Jan 14:57:21 15:01:27 22° 252° (WSW) 15:05:24 145.827
JAS-2 29 Jan 15:01:16 15:05:18 23° 64° (ENE) 15:09:20 435.910
BEESAT 29 Jan 15:07:14 15:11:10 25° 295° (WNW) 15:15:01 436.000
ITUPSAT 1 29 Jan 15:11:16 15:15:07 24° 295° (WNW) 15:18:53 437.325
DANDE 29 Jan 15:13:04 15:20:00 62° 74° (ENE) 15:25:07 436.750
ITAMSAT 1 29 Jan 15:15:31 15:18:34 15° 272° (W) 15:21:22 435.822/435.867
STARS 29 Jan 15:18:20 15:22:48 72° 102° (ESE) 15:27:13 437.465
KKS-1 29 Jan 15:25:03 15:29:32 66° 286° (WNW) 15:33:57 437.445
CUSAT 1 29 Jan 15:41:45 15:48:09 66° 265° (W) 15:52:51 437.405
M-CUBED/EXP-1 PRIME 29 Jan 15:44:32 15:47:44 45° 105° (ESE) 15:51:01 437.505
CUTE-I 29 Jan 16:01:09 16:03:11 13° 57° (ENE) 16:05:28 437.470
HORYU 2 29 Jan 16:17:31 16:19:47 13° 272° (W) 16:21:49 437.375
AUBIESAT-1 29 Jan 16:17:33 16:20:52 72° 289° (WNW) 16:24:15 437.475
O/OREOS (USA 219) 29 Jan 16:20:16 16:24:42 62° 110° (ESE) 16:29:11 437.305
AO-7 29 Jan 16:23:37 16:31:34 45° 261° (W) 16:39:29 29.400- 29.500
RS-15 29 Jan 16:32:49 16:40:56 22° 258° (WSW) 16:48:36 29.354- 29.394
JAS-2 29 Jan 16:44:55 16:50:14 49° 260° (W) 16:55:17 435.910
STARS 29 Jan 16:56:30 16:58:46 14° 299° (WNW) 17:00:52 437.465
DANDE 29 Jan 16:57:48 17:02:31 20° 280° (W) 17:06:16 436.750
MOZHAYETS 4 29 Jan 17:05:20 17:09:52 62° 101° (E) 17:14:23
Cubesat XI-IV 29 Jan 17:17:26 17:22:35 54° 71° (ENE) 17:27:49 437.490
M-CUBED/EXP-1 PRIME 29 Jan 17:21:03 17:22:29 12° 301° (WNW) 17:23:48 437.505
CUTE-I 29 Jan 17:37:10 17:42:29 78° 75° (ENE) 17:47:52 437.470
SO-50 29 Jan 17:50:08 17:54:07 24° 39° (NE) 17:58:11 436.795
O/OREOS (USA 219) 29 Jan 18:01:33 18:04:37 17° 310° (NW) 18:07:35 437.305
HO-68 29 Jan 18:07:39 18:11:13 15° 50° (NE) 18:15:06 435.675
MOZHAYETS 4 29 Jan 18:43:52 18:46:41 16° 297° (WNW) 18:49:20
PRISM 29 Jan 18:53:47 18:57:58 90° 330° (NNW) 19:02:08 437.425
CUBESAT XI-V 29 Jan 18:58:29 19:03:11 73° 101° (E) 19:07:53 437.345
Cubesat XI-IV 29 Jan 18:59:01 19:03:05 21° 269° (W) 19:07:02 437.490
COMPASS 1 29 Jan 19:09:47 19:11:10 12° 62° (ENE) 19:12:44 437.405
YUBILEINY 29 Jan 19:09:48 19:17:51 46° 88° (E) 19:26:02 435.215
STRAND 1 29 Jan 19:12:34 19:17:43 66° 101° (ESE) 19:22:51 437.568
CUTE-I 29 Jan 19:20:22 19:23:19 14° 273° (W) 19:26:00 437.470
CANX-2 29 Jan 19:22:52 19:26:16 24° 67° (ENE) 19:29:44 2200.000
CINEMA 3 29 Jan 19:26:59 19:29:06 13° 59° (ENE) 19:31:28 145.822/145.860
GOMX 1 29 Jan 19:29:28 19:33:53 30° 66° (ENE) 19:38:36 467.674
SO-50 29 Jan 19:30:13 19:35:06 62° 238° (WSW) 19:39:57 436.795
AAUSAT CUBESAT 2 29 Jan 19:34:13 19:37:02 18° 66° (ENE) 19:39:58 437.432
BRITE-PL 29 Jan 19:35:19 19:40:10 46° 70° (ENE) 19:45:25 437.365/2234.400
DOVE 4 29 Jan 19:40:12 19:44:28 28° 66° (ENE) 19:48:58 437.250
CUTE 1.7 + AOD 2 29 Jan 19:46:21 19:50:17 37° 71° (ENE) 19:54:16 437.475
HO-68 29 Jan 19:50:44 19:57:47 66° 69° (ENE) 20:04:53 435.675
Oscar 11 29 Jan 19:50:49 19:53:11 15° 63° (ENE) 19:55:43 145.826/435.025
SEEDS 29 Jan 20:16:08 20:20:22 67° 75° (ENE) 20:24:36 437.485
UKube-1 29 Jan 20:25:33 20:28:41 20° 65° (ENE) 20:31:57 .
CUBEBUG 2 29 Jan 20:34:10 20:38:18 31° 68° (ENE) 20:42:31 437.445
CUBESAT XI-V 29 Jan 20:37:31 20:40:08 15° 298° (WNW) 20:42:35 437.345
ZACube-1 29 Jan 20:40:27 20:44:09 25° 67° (ENE) 20:47:57 437.345
HUMSAT D 29 Jan 20:41:50 20:44:06 14° 63° (ENE) 20:46:32 437.325/437.525
COMPASS 1 29 Jan 20:42:08 20:46:22 77° 258° (WSW) 20:50:36 437.405
DX 1 29 Jan 20:45:59 20:49:52 33° 69° (ENE) 20:53:49 434.975-435.025
FUNcube-1 29 Jan 20:51:54 20:55:55 31° 69° (ENE) 21:00:01 145.935
STRAND 1 29 Jan 20:52:56 20:56:28 18° 299° (WNW) 20:59:51 437.568
CANX-2 29 Jan 20:58:09 21:02:06 34° 264° (W) 21:06:00 2200.000
CINEMA 3 29 Jan 21:00:39 21:05:37 87° 70° (ENE) 21:10:43 145.822/145.860
DELFI C3 29 Jan 21:01:05 21:05:06 60° 74° (ENE) 21:09:08 145.870
YUBILEINY 29 Jan 21:06:37 21:14:48 43° 290° (WNW) 21:22:57 435.215
GOMX 1 29 Jan 21:07:06 21:11:53 39° 265° (W) 21:16:54 467.674
AAUSAT CUBESAT 2 29 Jan 21:08:23 21:12:26 44° 262° (W) 21:16:28 437.432
UWE-3 29 Jan 21:12:45 21:17:23 61° 73° (ENE) 21:22:03 435.000/436.395/437.385
AISAT 29 Jan 21:12:50 21:16:27 25° 66° (ENE) 21:20:12 437.250
BRITE-PL 29 Jan 21:14:44 21:18:58 25° 270° (W) 21:23:21 437.365/2234.400
DOVE 4 29 Jan 21:17:15 21:22:02 41° 264° (W) 21:27:02 437.250
ESTCUBE 1 29 Jan 21:18:43 21:20:53 14° 62° (ENE) 21:23:14 437.505/2401.250
CUTE 1.7 + AOD 2 29 Jan 21:23:03 21:26:23 21° 268° (W) 21:29:38 437.475
Oscar 11 29 Jan 21:24:39 21:28:57 61° 259° (W) 21:33:16 145.826/435.025
ISS 29 Jan 21:34:18 21:37:05 26° 138° (SE) 21:39:55 145.825
VELOX 1 29 Jan 21:40:10 21:44:23 45° 71° (ENE) 21:48:40 145.980
HO-68 29 Jan 21:40:20 21:46:08 25° 269° (W) 21:51:45 435.675
50 SAT 29 Jan 21:47:29 21:51:28 48° 73° (ENE) 21:55:29 437.505
CUBEBUG 1 29 Jan 21:48:03 21:51:28 23° 66° (ENE) 21:54:59 437.445
SEEDS 29 Jan 21:55:01 21:56:44 12° 273° (W) 21:58:13 437.485
UKube-1 29 Jan 22:00:30 22:04:37 42° 261° (W) 22:08:46 .
POLYITAN 1 29 Jan 22:06:41 22:08:09 12° 87° (E) 22:09:51 437.675
TISAT 1 29 Jan 22:10:36 22:10:51 10° 60° (ENE) 22:11:20 437.305
CUBEBUG 2 29 Jan 22:10:41 22:14:58 32° 265° (W) 22:19:15 437.445
UNISAT 6 29 Jan 22:14:11 22:17:47 24° 93° (E) 22:21:22 437.425
HUMSAT D 29 Jan 22:15:07 22:19:27 64° 259° (W) 22:23:48 437.325/437.525
ZACube-1 29 Jan 22:16:05 22:20:23 37° 264° (W) 22:24:41 437.345
AIST 1 29 Jan 22:21:17 22:25:36 60° 79° (E) 22:29:56
DX 1 29 Jan 22:22:35 22:26:12 25° 266° (W) 22:29:47 434.975-435.025
POPSAT HIP 1 29 Jan 22:25:13 22:28:13 19° 91° (E) 22:31:19 437.405
DUCHIFAT 1 29 Jan 22:27:32 22:30:37 19° 92° (E) 22:33:47 145.980
FUNcube-1 29 Jan 22:28:14 22:32:17 29° 266° (W) 22:36:17 145.935
DELFI C3 29 Jan 22:39:04 22:40:49 12° 272° (W) 22:42:22 145.870
CINEMA 3 29 Jan 22:41:43 22:43:38 12° 276° (W) 22:45:15 145.822/145.860
AISAT 29 Jan 22:48:54 22:52:58 34° 264° (W) 22:57:04 437.250
ANTELSAT 29 Jan 22:49:42 22:54:06 56° 100° (E) 22:58:23 437.575/2403.000
UWE-3 29 Jan 22:51:28 22:54:23 16° 272° (W) 22:57:08 435.000/436.395/437.385
ESTCUBE 1 29 Jan 22:52:47 22:57:16 72° 258° (WSW) 23:01:47 437.505/2401.250
TIGRISAT 29 Jan 22:57:07 23:01:35 66° 101° (E) 23:05:55 435.000
NANOSAT C BR1 29 Jan 23:01:30 23:05:38 44° 98° (E) 23:09:45 145.865
SPROUT 29 Jan 23:06:49 23:10:48 38° 70° (ENE) 23:14:51 437.525
ISS 29 Jan 23:10:15 23:13:28 49° 336° (NNW) 23:16:42 145.825
QB50P2 29 Jan 23:16:01 23:20:20 66° 101° (E) 23:24:36 145.880/145.840
VELOX 1 29 Jan 23:18:05 23:21:16 19° 269° (W) 23:24:20 145.980
CUBEBUG 1 29 Jan 23:23:40 23:27:42 36° 263° (W) 23:31:44 437.445
GONETS M04 29 Jan 23:23:57 23:25:17 11° 73° (ENE) 23:27:21
50 SAT 29 Jan 23:24:19 23:26:54 16° 270° (W) 23:29:21 437.505
QB50P1 29 Jan 23:25:09 23:29:30 82° 103° (ESE) 23:33:48 145.935-145.965
BUGSAT 1 29 Jan 23:34:08 23:38:27 79° 104° (ESE) 23:42:44 437.445
POLYITAN 1 29 Jan 23:40:21 23:44:41 69° 286° (WNW) 23:48:56 437.675
TISAT 1 29 Jan 23:41:48 23:46:03 89° 77° (ENE) 23:50:21 437.305
UNISAT 6 29 Jan 23:50:37 23:54:42 34° 291° (WNW) 23:58:39 437.425
POPSAT HIP 1 30 Jan 00:00:15 00:04:23 43° 289° (WNW) 00:08:26 437.405
AIST 1 30 Jan 00:00:48 00:02:49 13° 275° (W) 00:04:38
DUCHIFAT 1 30 Jan 00:02:37 00:06:41 41° 289° (WNW) 00:10:42 145.980
SWISSCUBE 30 Jan 00:21:36 00:26:03 42° 70° (ENE) 00:30:33 437.505
ANTELSAT 30 Jan 00:27:39 00:30:30 16° 297° (WNW) 00:33:09 437.575/2403.000
TIGRISAT 30 Jan 00:35:23 00:37:51 14° 298° (WNW) 00:40:07 435.000
BEESAT 30 Jan 00:37:04 00:41:43 54° 72° (ENE) 00:46:23 436.000
NANOSAT C BR1 30 Jan 00:38:08 00:41:14 19° 295° (WNW) 00:44:13 145.865
ITUPSAT 1 30 Jan 00:41:18 00:45:58 59° 72° (ENE) 00:50:41 437.325
SPROUT 30 Jan 00:43:44 00:47:04 21° 268° (W) 00:50:21 437.525
ISS 30 Jan 00:47:48 00:50:30 23° 355° (N) 00:53:13 145.825
O/OREOS (USA 219) 30 Jan 00:50:01 00:53:23 20° 52° (NE) 00:56:52 437.305
KKS-1 30 Jan 00:50:14 00:52:56 16° 63° (ENE) 00:55:49 437.445
QB50P2 30 Jan 00:53:29 00:55:47 14° 298° (WNW) 00:57:54 145.880/145.840
QB50P1 30 Jan 01:03:17 01:04:49 11° 299° (WNW) 01:06:10 145.935-145.965
BUGSAT 1 30 Jan 01:11:44 01:13:24 12° 299° (WNW) 01:14:51 437.445
GONETS M04 30 Jan 01:11:56 01:20:27 60° 92° (E) 01:29:00
BEESAT 3 30 Jan 01:19:12 01:21:23 15° 111° (ESE) 01:23:45 437.485
Oscar 19 30 Jan 01:27:09 01:32:02 42° 97° (E) 01:36:55 437.125/150
AUBIESAT-1 30 Jan 01:34:29 01:37:04 18° 62° (ENE) 01:39:36 437.475
ITAMSAT 1 30 Jan 01:45:09 01:49:10 23° 92° (E) 01:53:19 435.822/435.867
SWISSCUBE 30 Jan 02:00:20 02:04:08 23° 267° (W) 02:07:51 437.505
BEESAT 30 Jan 02:16:43 02:19:58 18° 270° (W) 02:23:04 436.000
STARS 30 Jan 02:16:49 02:21:16 78° 75° (ENE) 02:25:45 437.465
ITUPSAT 1 30 Jan 02:21:17 02:24:20 16° 271° (W) 02:27:13 437.325
ISS 30 Jan 02:24:44 02:27:41 30° 15° (NNE) 02:30:40 145.825
KKS-1 30 Jan 02:24:45 02:29:11 59° 259° (W) 02:33:39 437.445
O/OREOS (USA 219) 30 Jan 02:28:41 02:33:10 52° 251° (WSW) 02:37:38 437.305
HORYU 2 30 Jan 02:30:31 02:31:41 11° 87° (E) 02:33:06 437.375
M-CUBED/EXP-1 PRIME 30 Jan 02:35:07 02:39:08 85° 251° (WSW) 02:42:51 437.505
AO-7 30 Jan 02:35:52 02:35:55 10° 80° (E) 02:36:47 29.400- 29.500
AIST 2 30 Jan 02:41:09 02:45:04 37° 117° (ESE) 02:49:05 435.215
BEESAT 2 30 Jan 02:41:33 02:45:40 87° 126° (SE) 02:49:54 435.950
RS-15 30 Jan 02:43:02 02:44:08 10° 96° (E) 02:46:22 29.354- 29.394
DANDE 30 Jan 02:44:14 02:49:01 17° 79° (E) 02:54:20 436.750
Gurwin Techsat 1B 30 Jan 02:45:18 02:50:32 55° 100° (E) 02:55:45 435.225
BEESAT 3 30 Jan 02:55:01 02:59:06 61° 308° (NW) 03:03:14 437.485
Oscar 19 30 Jan 03:06:55 03:11:13 27° 295° (WNW) 03:15:25 437.125/150
CUSAT 1 30 Jan 03:07:22 03:14:02 29° 86° (E) 03:20:58 437.405
AUBIESAT-1 30 Jan 03:08:06 03:11:50 38° 255° (WSW) 03:15:18 437.475
GONETS M04 30 Jan 03:10:06 03:17:53 33° 294° (WNW) 03:25:29
ITAMSAT 1 30 Jan 03:23:56 03:29:00 49° 290° (WNW) 03:34:00 435.822/435.867
JAS-2 30 Jan 03:51:28 03:55:14 18° 90° (E) 03:59:31 435.910
PCSat 30 Jan 03:56:33 04:01:30 38° 113° (ESE) 04:06:32 145.827
STARS 30 Jan 03:57:03 03:58:25 11° 273° (W) 03:59:29 437.465
ISS 30 Jan 04:01:07 04:04:25 68° 215° (SW) 04:07:42 145.825
HORYU 2 30 Jan 04:04:32 04:09:01 76° 285° (WNW) 04:13:25 437.375
MOZHAYETS 4 30 Jan 04:08:46 04:13:20 70° 75° (ENE) 04:17:54
AIST 2 30 Jan 04:20:03 04:23:47 28° 316° (NW) 04:27:32 435.215
BEESAT 2 30 Jan 04:21:56 04:24:32 15° 324° (NW) 04:27:03 435.950
AO-7 30 Jan 04:22:38 04:30:52 59° 102° (ESE) 04:39:02 29.400- 29.500
DANDE 30 Jan 04:23:02 04:31:19 74° 97° (E) 04:39:56 436.750
Gurwin Techsat 1B 30 Jan 04:26:06 04:30:11 22° 297° (WNW) 04:34:08 435.225
CUBESAT XI-V 30 Jan 04:30:26 04:31:18 11° 59° (ENE) 04:32:25 437.345
BEESAT 3 30 Jan 04:36:31 04:38:09 12° 329° (NNW) 04:39:40 437.485
RS-15 30 Jan 04:43:47 04:54:16 58° 115° (ESE) 05:04:56 29.354- 29.394
CUSAT 1 30 Jan 04:48:14 04:56:34 73° 283° (WNW) 05:04:53 437.405
STRAND 1 30 Jan 04:53:37 04:56:35 16° 60° (ENE) 04:59:46 437.568
YUBILEINY 30 Jan 05:17:50 05:24:37 25° 61° (ENE) 05:31:41 435.215
Cubesat XI-IV 30 Jan 05:33:58 05:37:37 19° 90° (E) 05:41:28 437.490
JAS-2 30 Jan 05:35:14 05:40:51 71° 287° (WNW) 05:47:10 435.910
PCSat 30 Jan 05:39:58 05:44:58 36° 312° (NW) 05:49:59 145.827
PRISM 30 Jan 05:45:50 05:49:57 83° 76° (ENE) 05:54:05 437.425
MOZHAYETS 4 30 Jan 05:49:03 05:51:10 13° 273° (W) 05:53:04
CUTE-I 30 Jan 05:53:08 05:57:39 27° 94° (E) 06:02:14 437.470
CUBESAT XI-V 30 Jan 06:03:28 06:08:04 84° 77° (ENE) 06:12:44 437.345
DANDE 30 Jan 06:08:15 06:15:37 31° 297° (WNW) 06:22:51 436.750
AO-7 30 Jan 06:15:56 06:23:21 36° 302° (WNW) 06:30:37 29.400- 29.500
STRAND 1 30 Jan 06:30:10 06:35:15 75° 256° (WSW) 06:40:24 437.568
CUSAT 1 30 Jan 06:35:21 06:41:08 19° 304° (NW) 06:46:27 437.405
RS-15 30 Jan 06:56:26 07:06:58 50° 320° (NW) 07:17:39 29.354- 29.394
Cubesat XI-IV 30 Jan 07:12:55 07:18:14 62° 288° (WNW) 07:23:32 437.490
YUBILEINY 30 Jan 07:13:47 07:22:35 79° 264° (W) 07:31:23 435.215
JAS-2 30 Jan 07:23:13 07:25:19 12° 303° (WNW) 07:27:09 435.910
CUTE-I 30 Jan 07:32:50 07:37:55 43° 291° (WNW) 07:42:57 437.470
BRITE-PL 30 Jan 07:40:01 07:43:11 16° 85° (E) 07:46:32 437.365/2234.400
CUBESAT XI-V 30 Jan 07:45:15 07:46:17 10° 275° (W) 07:47:01 437.345
